Regional Weather Roundup
Issued by NWS Newport/Morehead, NC

Current Version | Previous Version | Graphics & Text | Print | Product List | Glossary Off
Versions: 1 2 3 4 5 6 7 8 9 10 11 12 13 14 15 16 17 18 19 20 21 22 23 24 25 26 27 28 29 30 31 32 33 34 35 36 37 38 39 40 41 42 43 44 45 46 47 48 49 50

000
ASUS42 KMHX 310022
RWRMHX
WEATHER ROUNDUP FOR EASTERN NORTH CAROLINA
NATIONAL WEATHER SERVICE NEWPORT/MOREHEAD CITY NC
700 PM EST FRI JAN 30 2015

NOTE: "FAIR" INDICATES FEW OR NO CLOUDS BELOW 12,000 FEET
WITH NO SIGNIFICANT WEATHER AND/OR OBSTRUCTIONS TO VISIBILITY

NCZ015>017-031-032-045>047-102-103-310100-
NORTH COAST

CITY           SKY/WX    TMP DP  RH WIND       PRES   REMARKS
EDENTON        CLOUDY    42  20  41 N17       30.13R
ELIZABETH CITY MOCLDY    39  22  50 N24       30.12R
KITTY HAWK     CLOUDY    38  29  70 N8        30.08R
MANTEO         CLOUDY    37  30  75 N7        30.10R

$$

NCZ045>047-081-094-103-104-310100-
CENTRAL COAST

CITY           SKY/WX    TMP DP  RH WIND       PRES   REMARKS
FRISCO         CLOUDY    41  30  65 VRB5      30.09R
SWANQUARTER      N/A     41 N/A N/A NW14      30.06

$$

NCZ095-097-098-100-101-310100-
SOUTHERN COAST

CITY           SKY/WX    TMP DP  RH WIND       PRES   REMARKS
BEAUFORT       CLEAR     43  26  51 W12       30.12R
CEDAR ISLAND     N/A     45 N/A N/A W15G24    30.12
JACKSONVILLE   CLEAR     41  19  41 NW9       30.15R
PINEY ISLAND     N/A    N/A N/A N/A MISG      30.10R
WILMINGTON     CLEAR     43  20  39 NW6       30.16R


$$

NCZ011>013-027>030-043-044-078>080-089-090>093-098-310100-
COASTAL PLAIN

CITY           SKY/WX    TMP DP  RH WIND       PRES   REMARKS
AHOSKIE        CLEAR     38  12  34 NW8       30.17R
CLINTON        CLEAR     44  20  38 NW8       30.19R
ELIZABETHTOWN  CLEAR     45  16  31 NW9G16    30.19R
GOLDSBORO      CLEAR     48  18  29 NW14G23   30.07R
GREENVILLE     CLEAR     41  16  36 NW10G20   30.17R
HAVELOCK       CLEAR     44  18  35 NW14      30.14R
KENANSVILLE    CLEAR     42  14  32 NW8       30.18R
KINSTON        CLEAR     43  16  33 NW12G17     N/A
NEW BERN       CLEAR     46  15  28 NW20G28   30.14R
RICHLANDS      CLEAR     43  18  36 NW5       30.17R
ROCKY MOUNT    CLEAR     39  13  34 NW15G21   30.19R
WASHINGTON     CLEAR     41  16  36 NW10G22   30.14R
WHITEVILLE     CLEAR     45  19  36 W3        30.19R

$$

AMZ130-135-150-152-154-156-158-170-250-252-270-ANZ085-086-088-633-658-670-310100-
MARINE OBSERVATIONS

STATION/POSITION TIME  TEMP    WIND        PRES    WAVE   SWELL
                       AIR SEA DIR/SP/G            HT/PER HT/PER
                 (UTC) (F)     (DEG/KT/KT) (MB)    (FT/S) (FT/S)
CHESAPEAKE LIGHT 0000   37     320/ 38/ 41 1019.1
64 E VA BEACH    0000   40 49  330/ 29/ 37 1016.4   11/ 7
DUCK             0000   40 44  330/ 19/ 27 1018.1
2 E DUCK         0000      43                N/A     4/ 6
10 NE DUCK       0000      45                N/A     6/ 6
OREGON INLET     0000   38 42  330/  8/ 10 1019.0
13E OREGON INLT  0000      43                N/A     6/ 7
HATTERAS CG      0000   43 46  340/ 11/ 11 1019.0
DIAMOND BUOY     0000   46 67  330/ 16/ 19 1018.1    5/ 8   3/ 8
17 S OCRACOKE    NOT AVBL
CAPE LOOKOUT     0000   46     300/ 17/ 20 1019.7
BEAUFORT LAB     0000   44 47  310/  6/ 11 1018.9
27 SE WRIGHTSVLE NOT AVBL
5 SE WRIGHTSVLE  0000   48 52  320/ 16/ 17 1021.1
225 S CAPE HAT   NOT AVBL
41 SE CHARLESTON 0000   56 68  320/ 19/ 25 1021.5    5/ 5   2/10

$$



USA.gov is the U.S. government's official web portal to all federal, state and local government web resources and services.